EW7951 Weather Reports


Display with metric or nautical units.
time (UTC)temp
F
wind
direction
speed
MPH
gust
MPH
rain 1hr
in
rain 24hr
in
rain mn
in
humidity
%
barometer
mb
20260510005608 58 35 2.0 7.0 0.00 0.00 0.00 68 1010.1
20260510005108 58 41 3.0 7.0 0.00 0.00 0.00 68 1010.2
20260510004607 58 40 1.0 6.0 0.00 0.00 0.00 68 1010.2
20260510004108 58 35 2.0 7.0 0.00 0.00 0.00 68 1010.2
20260510003608 59 39 3.0 6.0 0.00 0.00 0.00 68 1010.3
20260510003108 59 32 2.0 7.0 0.00 0.00 0.00 68 1010.3
20260510002607 59 33 2.0 7.0 0.00 0.00 0.00 68 1010.5
20260510002109 59 36 1.0 6.0 0.00 0.00 0.00 68 1010.6
20260510001108 59 34 2.0 6.0 0.00 0.00 0.00 68 1010.6
20260510000608 59 31 1.0 7.0 0.00 0.00 0.00 68 1010.7
20260510000108 59 36 3.0 6.0 0.00 0.00 0.00 68 1010.7
20260509235608 59 47 3.0 6.0 0.00 0.00 0.00 68 1010.7
20260509235108 59 37 2.0 6.0 0.00 0.00 0.00 68 1010.8
20260509234608 59 38 3.0 6.0 0.00 0.00 0.00 69 1010.8
20260509234108 59 37 1.0 5.0 0.00 0.00 0.00 69 1010.9
20260509233608 59 41 2.0 3.0 0.00 0.00 0.00 69 1010.9
20260509233110 59 44 1.0 3.0 0.00 0.00 0.00 69 1011.0
20260509232607 59 43 1.0 3.0 0.00 0.00 0.00 68 1011.0
20260509232108 59 48 2.0 6.0 0.00 0.00 0.00 68 1011.0
20260509231609 60 40 1.0 5.0 0.00 0.00 0.00 68 1011.0
20260509231107 60 40 1.0 5.0 0.00 0.00 0.00 68 1011.1
20260509230608 60 42 1.0 3.0 0.00 0.00 0.00 68 1011.2
20260509230108 60 43 1.0 3.0 0.00 0.00 0.00 67 1011.3
20260509225608 60 47 1.0 5.0 0.00 0.00 0.00 67 1011.2
20260509225107 60 45 1.0 3.0 0.00 0.00 0.00 67 1011.2
20260509224608 60 46 2.0 6.0 0.00 0.00 0.00 67 1011.2
20260509224108 60 43 3.0 6.0 0.00 0.00 0.00 67 1011.2
20260509223609 60 44 0.0 3.0 0.00 0.00 0.00 68 1011.2
20260509223108 60 52 1.0 5.0 0.00 0.00 0.00 68 1011.2
20260509222608 60 56 1.0 3.0 0.00 0.00 0.00 68 1011.1
20260509222108 61 58 1.0 3.0 0.00 0.00 0.00 68 1011.1
20260509221608 61 60 0.0 3.0 0.00 0.00 0.00 68 1011.2
20260509221108 61 60 1.0 5.0 0.00 0.00 0.00 68 1011.2
20260509220609 61 62 1.0 3.0 0.00 0.00 0.00 68 1011.2
20260509220109 61 61 0.0 3.0 0.00 0.00 0.00 68 1011.2
20260509215609 61 61 1.0 3.0 0.00 0.00 0.00 68 1011.1
20260509214107 62 63 0.0 0.0 0.00 0.00 0.00 67 1011.2
20260509213606 62 63 0.0 0.0 0.00 0.00 0.00 67 1011.2
20260509213106 62 63 0.0 0.0 0.00 0.00 0.00 66 1011.3
20260509212606 62 62 0.0 0.0 0.00 0.00 0.00 66 1011.3
20260509212106 62 63 0.0 0.0 0.00 0.00 0.00 66 1011.3
20260509211607 63 63 0.0 0.0 0.00 0.00 0.00 66 1011.3
20260509210606 63 63 0.0 2.0 0.00 0.00 0.00 65 1011.4
20260509205106 63 63 0.0 0.0 0.00 0.00 0.00 65 1011.2
20260509204606 63 63 0.0 0.0 0.00 0.00 0.00 65 1011.2
20260509204106 64 63 0.0 0.0 0.00 0.00 0.00 65 1011.1
20260509203606 64 63 0.0 2.0 0.00 0.00 0.00 64 1011.2
20260509203107 64 62 0.0 0.0 0.00 0.00 0.00 64 1011.2
20260509202608 64 63 0.0 0.0 0.00 0.00 0.00 64 1011.3
20260509202107 64 63 0.0 0.0 0.00 0.00 0.00 64 1011.3
20260509201107 65 63 0.0 2.0 0.00 0.00 0.00 61 1011.2
20260509200606 66 62 0.0 0.0 0.00 0.00 0.00 60 1011.2
20260509195606 67 62 0.0 0.0 0.00 0.00 0.00 58 1011.1
20260509195106 67 62 0.0 0.0 0.00 0.00 0.00 58 1011.0
20260509194606 67 63 0.0 0.0 0.00 0.00 0.00 58 1011.0
20260509193605 68 62 0.0 0.0 0.00 0.00 0.00 57 1011.0
20260509193107 68 62 0.0 0.0 0.00 0.00 0.00 57 1010.9
20260509192606 68 63 0.0 2.0 0.00 0.00 0.00 57 1010.9
20260509192106 68 64 0.0 3.0 0.00 0.00 0.00 56 1010.9
20260509191607 69 57 2.0 3.0 0.00 0.00 0.00 56 1010.9
20260509191107 69 60 0.0 2.0 0.00 0.00 0.00 56 1010.8
20260509190607 69 61 0.0 0.0 0.00 0.00 0.00 55 1010.8
20260509185607 70 61 0.0 0.0 0.00 0.00 0.00 54 1010.8
20260509184606 71 61 0.0 0.0 0.00 0.00 0.00 52 1010.8
20260509184106 71 61 0.0 0.0 0.00 0.00 0.00 52 1010.6
20260509183105 72 61 1.0 2.0 0.00 0.00 0.00 50 1010.6
20260509182606 73 64 0.0 3.0 0.00 0.00 0.00 49 1010.6
20260509182107 73 70 2.0 5.0 0.00 0.00 0.00 49 1010.6
20260509181606 73 56 0.0 6.0 0.00 0.00 0.00 49 1010.6
20260509180608 73 51 1.0 6.0 0.00 0.00 0.00 48 1010.7
20260509180106 74 44 1.0 5.0 0.00 0.00 0.00 47 1010.7
20260509175106 74 116 1.0 7.0 0.00 0.00 0.00 46 1010.6
20260509174606 74 112 1.0 7.0 0.00 0.00 0.00 45 1010.7
20260509174106 74 106 3.0 8.0 0.00 0.00 0.00 45 1010.7
20260509173606 75 68 2.0 7.0 0.00 0.00 0.00 45 1010.6
20260509173106 75 91 1.0 7.0 0.00 0.00 0.00 44 1010.8
20260509172608 75 78 3.0 9.0 0.00 0.00 0.00 44 1010.8
20260509172107 75 87 1.0 8.0 0.00 0.00 0.00 44 1010.8
20260509171607 74 107 3.0 8.0 0.00 0.00 0.00 45 1010.8
20260509171107 74 109 3.0 12.0 0.00 0.00 0.00 45 1010.8
20260509165607 74 53 1.0 5.0 0.00 0.00 0.00 46 1010.9
20260509164605 74 61 0.0 3.0 0.00 0.00 0.00 46 1010.9
20260509164106 74 69 0.0 5.0 0.00 0.00 0.00 45 1010.9
20260509163607 75 72 1.0 5.0 0.00 0.00 0.00 44 1010.9
20260509163106 76 102 1.0 5.0 0.00 0.00 0.00 42 1010.9
20260509162107 76 65 4.0 13.0 0.00 0.00 0.00 43 1010.9
20260509161606 76 104 4.0 12.0 0.00 0.00 0.00 43 1010.9
20260509161106 76 137 2.0 8.0 0.00 0.00 0.00 44 1010.9
20260509160606 75 100 1.0 6.0 0.00 0.00 0.00 45 1011.1
20260509160107 75 79 2.0 5.0 0.00 0.00 0.00 44 1011.1
20260509155106 75 73 6.0 10.0 0.00 0.00 0.00 42 1011.1
20260509154106 76 46 0.0 5.0 0.00 0.00 0.00 45 1011.2
20260509153106 76 107 2.0 9.0 0.00 0.00 0.00 41 1011.3
20260509152607 77 70 1.0 8.0 0.00 0.00 0.00 43 1011.3
20260509151607 76 119 1.0 12.0 0.00 0.00 0.00 43 1011.4
20260509150607 77 107 1.0 5.0 0.00 0.00 0.00 43 1011.6
20260509150106 76 104 2.0 7.0 0.00 0.00 0.00 42 1011.5
20260509145106 77 72 2.0 13.0 0.00 0.00 0.00 43 1011.5
20260509144606 75 50 2.0 8.0 0.00 0.00 0.00 45 1011.6
20260509144107 75 70 3.0 10.0 0.00 0.00 0.00 45 1011.5
20260509143107 74 43 3.0 9.0 0.00 0.00 0.00 45 1011.6
20260509142606 74 56 2.0 7.0 0.00 0.00 0.00 46 1011.6
20260509142107 75 48 4.0 12.0 0.00 0.00 0.00 44 1011.6
20260509141606 75 56 3.0 7.0 0.00 0.00 0.00 45 1011.6
20260509140607 75 44 3.0 12.0 0.00 0.00 0.00 44 1011.6
20260509135606 76 59 3.0 12.0 0.00 0.00 0.00 45 1011.6
20260509135107 76 104 4.0 8.0 0.00 0.00 0.00 45 1011.6
20260509134606 75 91 5.0 12.0 0.00 0.00 0.00 45 1011.6
20260509134106 75 68 5.0 14.0 0.00 0.00 0.00 44 1011.6
20260509133606 75 51 2.0 12.0 0.00 0.00 0.00 45 1011.6
20260509133107 75 50 6.0 13.0 0.00 0.00 0.00 43 1011.7
20260509132606 76 90 2.0 12.0 0.00 0.00 0.00 44 1011.8
20260509132106 76 69 2.0 13.0 0.00 0.00 0.00 45 1011.9
20260509131606 75 102 3.0 10.0 0.00 0.00 0.00 39 1011.9
20260509131107 76 63 6.0 12.0 0.00 0.00 0.00 42 1011.9
20260509130107 76 84 3.0 9.0 0.00 0.00 0.00 44 1012.1
20260509125106 75 85 2.0 8.0 0.00 0.00 0.00 47 1012.2
20260509124606 74 104 5.0 10.0 0.00 0.00 0.00 47 1012.3
20260509124106 74 64 3.0 10.0 0.00 0.00 0.00 48 1012.3
20260509123606 74 63 3.0 7.0 0.00 0.00 0.00 48 1012.4
20260509122605 75 112 2.0 8.0 0.00 0.00 0.00 46 1012.5
20260509122106 76 108 6.0 14.0 0.00 0.00 0.00 45 1012.5
20260509121606 76 101 1.0 8.0 0.00 0.00 0.00 45 1012.4
20260509121107 75 114 2.0 9.0 0.00 0.00 0.00 45 1012.4
20260509120606 75 94 2.0 9.0 0.00 0.00 0.00 45 1012.5
20260509115606 74 104 5.0 9.0 0.00 0.00 0.00 46 1012.7
20260509115106 74 98 2.0 9.0 0.00 0.00 0.00 45 1012.6
20260509114606 74 85 2.0 9.0 0.00 0.00 0.00 48 1012.8
20260509114106 74 68 3.0 8.0 0.00 0.00 0.00 48 1012.9
20260509113606 73 113 6.0 10.0 0.00 0.00 0.00 47 1013.0
20260509113107 73 100 4.0 12.0 0.00 0.00 0.00 48 1013.0
20260509112608 73 108 5.0 12.0 0.00 0.00 0.00 48 1013.1
20260509112106 73 103 5.0 10.0 0.00 0.00 0.00 48 1013.1
20260509111606 73 64 1.0 8.0 0.00 0.00 0.00 49 1013.1
20260509111107 73 81 3.0 9.0 0.00 0.00 0.00 52 1013.1
20260509110607 72 53 2.0 8.0 0.00 0.00 0.00 53 1013.2
20260509110106 74 62 2.0 7.0 0.00 0.00 0.00 52 1013.1
20260509105106 72 46 2.0 7.0 0.00 0.00 0.00 55 1013.3
20260509104606 72 28 2.0 9.0 0.00 0.00 0.00 56 1013.3
20260509104108 72 101 2.0 7.0 0.00 0.00 0.00 54 1013.4
20260509103607 71 74 2.0 9.0 0.00 0.00 0.00 56 1013.4
20260509103106 71 83 2.0 6.0 0.00 0.00 0.00 57 1013.4
20260509102607 70 33 2.0 9.0 0.00 0.00 0.00 58 1013.5
20260509102106 71 38 2.0 9.0 0.00 0.00 0.00 57 1013.5
20260509101607 71 128 2.0 3.0 0.00 0.00 0.00 57 1013.5
20260509101107 70 73 1.0 3.0 0.00 0.00 0.00 58 1013.4
20260509100606 70 52 0.0 5.0 0.00 0.00 0.00 60 1013.5
20260509100106 70 116 1.0 5.0 0.00 0.00 0.00 57 1013.5
20260509095606 68 104 1.0 7.0 0.00 0.00 0.00 61 1013.5
20260509094606 69 43 3.0 7.0 0.00 0.00 0.00 60 1013.6
20260509093606 69 29 1.0 7.0 0.00 0.00 0.00 61 1013.6
20260509093106 68 78 2.0 6.0 0.00 0.00 0.00 62 1013.6
20260509092607 67 40 3.0 7.0 0.00 0.00 0.00 62 1013.6
20260509092108 67 23 3.0 8.0 0.00 0.00 0.00 62 1013.7
20260509091607 67 36 1.0 7.0 0.00 0.00 0.00 63 1013.7
20260509091106 67 37 1.0 5.0 0.00 0.00 0.00 63 1013.6
20260509090106 67 59 1.0 3.0 0.00 0.00 0.00 63 1013.7
20260509085607 67 53 1.0 6.0 0.00 0.00 0.00 63 1013.7
20260509085106 66 32 1.0 3.0 0.00 0.00 0.00 64 1013.7
20260509084607 66 36 0.0 3.0 0.00 0.00 0.00 67 1013.7
20260509084106 65 35 1.0 7.0 0.00 0.00 0.00 66 1013.6
20260509083606 65 40 0.0 3.0 0.00 0.00 0.00 66 1013.7
20260509082606 64 41 1.0 2.0 0.00 0.00 0.00 69 1013.8
20260509081107 63 43 1.0 3.0 0.00 0.00 0.00 70 1014.1
20260509080607 62 45 0.0 5.0 0.00 0.00 0.00 71 1014.0
20260509080106 62 52 0.0 0.0 0.00 0.00 0.00 71 1014.1
20260509075606 61 52 0.0 1.0 0.00 0.00 0.00 72 1014.1
20260509075106 61 54 0.0 3.0 0.00 0.00 0.00 73 1014.1
20260509074607 61 57 0.0 1.0 0.00 0.00 0.00 73 1014.0
20260509074106 60 59 0.0 0.0 0.00 0.00 0.00 75 1014.1
20260509073106 59 59 0.0 2.0 0.00 0.00 0.00 75 1014.2
20260509072607 58 59 0.0 0.0 0.00 0.00 0.00 76 1014.2
20260509072106 57 61 1.0 3.0 0.00 0.00 0.00 77 1014.2
20260509071608 57 61 0.0 1.0 0.00 0.00 0.00 78 1014.2
20260509071106 57 62 0.0 0.0 0.00 0.00 0.00 77 1014.2
20260509070607 56 62 0.0 0.0 0.00 0.00 0.00 78 1014.2
20260509065607 55 62 0.0 0.0 0.00 0.00 0.00 79 1014.3
20260509065106 54 62 0.0 0.0 0.00 0.00 0.00 80 1014.4
20260509064607 54 62 0.0 0.0 0.00 0.00 0.00 81 1014.4
20260509064106 54 62 0.0 0.0 0.00 0.00 0.00 81 1014.4
20260509063607 53 61 0.0 0.0 0.00 0.00 0.00 82 1014.3
20260509063106 53 62 0.0 0.0 0.00 0.00 0.00 82 1014.3
20260509062606 53 63 0.0 0.0 0.00 0.00 0.00 82 1014.1
20260509062107 53 63 0.0 0.0 0.00 0.00 0.00 83 1014.2
20260509061606 52 62 0.0 2.0 0.00 0.00 0.00 83 1014.3
20260509061106 52 61 0.0 3.0 0.00 0.00 0.00 83 1014.3
20260509060606 52 58 2.0 3.0 0.00 0.00 0.00 84 1014.2
20260509060106 51 53 1.0 3.0 0.00 0.00 0.00 85 1014.1
20260509055607 51 49 0.0 0.0 0.00 0.00 0.00 86 1014.0
20260509055106 50 45 2.0 3.0 0.00 0.00 0.00 86 1014.0
20260509054607 50 44 0.0 3.0 0.00 0.00 0.00 86 1014.0
20260509054106 50 44 1.0 5.0 0.00 0.00 0.00 86 1014.0
20260509053607 50 44 1.0 3.0 0.00 0.00 0.00 87 1013.9
20260509053106 49 44 0.0 0.0 0.00 0.00 0.00 87 1013.9
20260509052607 49 44 0.0 0.0 0.00 0.00 0.00 87 1013.9
20260509051608 49 44 0.0 3.0 0.00 0.00 0.00 87 1013.8
20260509051106 49 44 0.0 3.0 0.00 0.00 0.00 87 1013.8
20260509050606 49 44 0.0 2.0 0.00 0.00 0.00 87 1013.8
20260509050108 49 43 0.0 0.0 0.00 0.00 0.00 87 1013.8
20260509044606 48 44 0.0 2.0 0.00 0.00 0.00 87 1013.9
20260509044107 48 44 0.0 0.0 0.00 0.00 0.00 87 1013.7
20260509043607 48 44 0.0 2.0 0.00 0.00 0.00 87 1013.7
20260509043107 48 43 0.0 0.0 0.00 0.00 0.00 87 1013.8
20260509042607 48 44 0.0 1.0 0.00 0.00 0.00 87 1013.9
20260509042106 49 44 0.0 0.0 0.00 0.00 0.00 87 1013.8
20260509041608 49 44 0.0 0.0 0.00 0.00 0.00 87 1013.9
20260509041107 49 44 0.0 0.0 0.00 0.00 0.00 86 1013.9
20260509040606 49 44 0.0 0.0 0.00 0.00 0.00 86 1013.8
20260509040107 49 44 0.0 0.0 0.00 0.00 0.00 86 1013.8
20260509035107 49 44 0.0 1.0 0.00 0.00 0.00 86 1013.8
20260509034607 49 44 0.0 0.0 0.00 0.00 0.00 86 1013.8
20260509033606 49 43 0.0 0.0 0.00 0.00 0.00 86 1013.7
20260509033106 49 44 0.0 0.0 0.00 0.00 0.00 85 1013.8
20260509032606 49 44 0.0 2.0 0.00 0.00 0.00 85 1014.0
20260509032107 49 44 0.0 0.0 0.00 0.00 0.00 85 1014.0
20260509031607 49 44 0.0 0.0 0.00 0.00 0.00 85 1014.1
20260509030606 50 44 0.0 0.0 0.00 0.00 0.00 85 1014.1
20260509030107 50 42 0.0 0.0 0.00 0.00 0.00 85 1014.2
20260509025606 50 44 0.0 0.0 0.00 0.00 0.00 85 1014.3
20260509025107 50 44 0.0 0.0 0.00 0.00 0.00 85 1014.2
20260509024606 50 44 0.0 0.0 0.00 0.00 0.00 84 1014.3
20260509024107 50 44 0.0 0.0 0.00 0.00 0.00 84 1014.3
20260509023107 50 44 0.0 0.0 0.00 0.00 0.00 84 1014.2
20260509022107 50 43 0.0 0.0 0.00 0.00 0.00 84 1014.1
20260509021607 51 44 0.0 0.0 0.00 0.00 0.00 84 1014.0
20260509021108 51 44 0.0 0.0 0.00 0.00 0.00 83 1014.0
20260509020607 51 43 0.0 0.0 0.00 0.00 0.00 83 1014.1
20260509020107 51 43 0.0 0.0 0.00 0.00 0.00 83 1014.1
20260509015606 51 44 0.0 0.0 0.00 0.00 0.00 83 1014.1
20260509015107 51 44 0.0 0.0 0.00 0.00 0.00 83 1014.1
20260509014607 51 44 0.0 0.0 0.00 0.00 0.00 83 1014.1
20260509014106 51 44 0.0 0.0 0.00 0.00 0.00 83 1014.3
20260509013607 51 44 0.0 2.0 0.00 0.00 0.00 83 1014.3
20260509013106 51 44 0.0 2.0 0.00 0.00 0.00 83 1014.3
20260509012607 51 44 0.0 0.0 0.00 0.00 0.00 83 1014.3
20260509012106 51 44 0.0 0.0 0.00 0.00 0.00 83 1014.4
20260509011607 52 44 0.0 0.0 0.00 0.00 0.00 82 1014.4
20260509010607 52 44 0.0 0.0 0.00 0.00 0.00 82 1014.5
20260509010106 52 44 0.0 0.0 0.00 0.00 0.00 82 1014.5